Regional Weather Roundup
Issued by NWS

Home | Current Version | Previous Version | Text Only | Print | Product List | Glossary Off
Versions: 1 2 3 4 5 6 7 8 9 10 11 12 13 14 15 16 17 18 19 20 21 22 23 24 25 26 27 28 29 30 31 32 33 34 35 36 37 38 39 40 41 42 43 44 45 46 47 48 49 50

567
ASUS43 KFSD 271402
RWRSD

WEATHER ROUNDUP FOR SOUTH DAKOTA
NATIONAL WEATHER SERVICE SIOUX FALLS SD
900 AM CDT THU JUL 27 2017

NOTE: "FAIR" INDICATES FEW OR NO CLOUDS BELOW 12,000 FEET WITH NO
SIGNIFICANT WEATHER AND/OR OBSTRUCTIONS TO VISIBILITY.


SDZ001>005-009-010-012>017-271500-
NORTHWEST AND NORTH CENTRAL SOUTH DAKOTA

CITY           SKY/WX    TMP DP  RH WIND       PRES   REMARKS
BUFFALO          N/A     74  58  57 S14       30.04S
FAITH            N/A     72  56  57 SE15      30.13S
MOBRIDGE       SUNNY     72  62  71 SE9       30.13S
$$

SDZ012>016-024>037-041>051-057-063-072>074-271500-
SOUTHWEST AND SOUTH CENTRAL SOUTH DAKOTA

CITY           SKY/WX    TMP DP  RH WIND       PRES   REMARKS
RAPID CTY ARPT CLOUDY    73  60  63 S10       30.15S
PIERRE         SUNNY     71  58  63 SE5       30.13S
CUSTER         CLOUDY    64  60  87 S7        30.27R
ELLSWORTH AFB  CLOUDY    74  62  66 S16       30.14S
PHILIP         CLOUDY    77  57  50 S10       30.13S
PINE RIDGE     CLOUDY    71  59  65 SE15      30.18R
SPEARFISH      FAIR      77  57  50 E9        30.15S
WINNER         FAIR      73  60  63 CALM      30.16R
$$

SDZ004>011-016>023-039-040-271500-
NORTHEAST SOUTH DAKOTA

CITY           SKY/WX    TMP DP  RH WIND       PRES   REMARKS
ABERDEEN       SUNNY     69  63  81 CALM      30.15S
WATERTOWN      SUNNY     70  61  73 N3        30.15R
BROOKINGS      SUNNY     68  62  81 N5        30.15S
SISSETON         N/A     71  63  75 NW7       30.14R
$$

SDZ017-020-022-023-036>040-048>070-271500-
SOUTHEAST SOUTH DAKOTA

CITY           SKY/WX    TMP DP  RH WIND       PRES   REMARKS
SIOUX FALLS    MOSUNNY   70  64  81 N5        30.13S
HURON          SUNNY     70  63  78 CALM      30.15R
CHAMBERLAIN    SUNNY     70  64  81 SE5       30.15S
MITCHELL       SUNNY     71  64  78 N5        30.14F
YANKTON        SUNNY     71  63  75 N7        30.12F
$$

ABBREVIATIONS USED IN REMARKS
   TC - TEMPERATURE IN CELSIUS
  WCI - WIND CHILL INDEX
   HX - HEAT INDEX
  VSB - VISIBILITY





USA.gov is the U.S. government's official web portal to all federal, state and local government web resources and services.